Showing default

ORBCOMM FM 117, 41188

Orbit data source: Space-Track

ORBCOMM FM 117, 41188 is a payload satellite owned by Orbcomm (US) in LEO that was launched on Tue, 22 Dec 2015 UTC via an FALCON 9 launch vehicle from the Air Force Eastern Test Range (AFETR). Payload-class satellites include a variety of spacecraft equipped with specific instruments for various scientific and technological missions. These include communications satellites like Starlink; space stations such as the ISS; scientific satellites like the Hubble; Earth observation satellites from companies like Planet Labs, Umbra, and HawkEye 360; GPS; miniature CubeSats for education and research; and military/defense satellites.

Loading next visibility...
Identifier
41188, 2015-081K
Orbit
LEO
Country
Flag of USUS / ORB
Related business
Manufacturer
SNC Louisville
Mission
Operational Commercial Communications
Bus & Motor
SN-100A, Unknown motor
Mass
172 kg wet, 158 kg dry
Launch date (UTC)
2015-12-22 (10 years ago)
Launch vehicle
FALCON 9
Launch site
Air Force Eastern Test Range (AFETR)
Object type
Payload
Rocket body
Debris
Shape & HBR
Box + 1 Pan + 1 Ant, 5.3 m
Radar Cross Section
2.222 m², Medium (>0.1 m² and < 1m²)

Expand to show TLE details & history
Last TLE update: 7 hours ago

TLE from 7 hours ago
0 ORBCOMM FM 117
1 41188U 15081K   26150.51460569  .00000911  00000-0  22904-3 0  9998
2 41188  47.0013 264.3906 0002556 141.9865 218.1201 14.58842365557548
Epoch: 2026-05-30T12:21Z
TLE epoch observation values (Epoch: 2026-05-30T12:21:01.931Z)
Latitude
-0.00006°
Longitude
-168.89704°
Altitude
698.553 km
Speed
7.507 km/s
True Right ascension
17h 37m 33s
True Declination
0° 00' 00"
Sunlit
Object was in full shadow at epoch
Visualization orbit readout
Latitude
Unknown
Longitude
Unknown
Altitude
Unknown
Speed
Unknown
Apparent Right ascension
Unknown
Apparent Declination
Unknown
Sunlit
N/A
Visualization observer readout
Local Sidereal Time
04:53:11
Azimuth
Unknown
Elevation
Unknown
Doppler factor
Unknown
Orbital elements
Apogee altitude
699.958 km
Perigee altitude
696.341 km
Semi-major axis
7,076.286 km
Eccentricity
0.00026
Inclination
47.0013°
RAAN
264.3906°
Arg. of periapsis
141.9865°
True anomaly
218.10202°
Mean anomaly
218.1201°
Eccentric anomaly
218.11106°
Mean motion
3.64615 °/min
Orbital period
98.73 mins
BSTAR
0.00022904
Loading maneuver chart data...
Computing Atmospheric mass density...
Loading historical data...
Loading historical data...
Loading historical data...
Loading historical data...
Loading historical data...
Loading historical data...
Loading historical data...

Documentation

Showing up to 5 results
|